User: anonymous   Login
Location: Riverside
(39.1734°N, 77.8561°W)
Time: 15:51:37
(UTC+00:00)
Language:

PRISM - Orbit

View from above orbital plane
View from above orbital plane
View from above satellite
View from above satellite

Ground track
Ground track

The orbit data is extracted from the following two-line orbital elements,

1 33493U 09002B   19325.23103822  .00000786  00000-0  74081-4 0  9999
2 33493  98.1273 252.1078 0016114  33.0885 327.1340 14.96814275588412
Epoch (UTC): 21 November 2019 05:32:41
Eccentricity: 0.0016114
inclination: 98.1273°
perigee height: 565 km
apogee height: 588 km
right ascension of ascending node: 252.1078°
argument of perigee: 33.0885°
revolutions per day: 14.96814275
mean anomaly at epoch: 327.1340°
orbit number at epoch: 58841

The dashed part of the orbit path shows where the satellite is in the earth's shadow,  

DLR